QPF
0.00 0.00 0.00 0.00 0.00 0.00 0.00 0.00 0.00 0.00 0.00 0.00 0.00 0.00 0.00 0.00 0.00 0.00 0.00 0.00 0.00 0.00 0.00 0.00 0.00 0.00 0.00 0.00 0.02 0.02 0.00 0.01 0.01 0.16 0.27 0.02 0.01 0.00 0.01 0.01 0.00 0.00 0.04
0.00 0.00 0.00 0.00 0.00 0.00 0.00 0.00 0.00 0.00 0.00 0.00 0.00 0.00 0.00 0.00 0.00 0.00 0.00 0.00 0.00 0.00 0.00 0.00 0.00 0.00 0.01 0.01 0.01 0.00 0.00 0.00 0.00 0.01 0.04 0.02 0.01 0.00 0.00 0.00 0.00 0.01 0.03
0.00 0.00 0.00 0.00 0.00 0.00 0.00 0.00 0.00 0.00 0.00 0.00 0.00 0.00 0.00 0.00 0.00 0.00 0.00 0.00 0.00 0.00 0.00 0.00 0.01 0.03 0.05 0.05 0.01 0.00 0.00 0.00 0.00 0.00 0.00 0.00 0.01 0.01 0.00 0.01 0.01 0.01 0.01
0.00 0.00 0.00 0.00 0.00 0.00 0.00 0.00 0.00 0.00 0.00 0.00 0.00 0.00 0.00 0.00 0.00 0.00 0.00 0.00 0.00 0.00 0.00 0.01 0.01 0.04 0.08 0.03 0.00 0.00 0.00 0.00 0.00 0.00 0.00 0.01 0.01 0.02 0.00 0.01 0.00 0.01 0.01
0.00 0.00 0.00 0.00 0.00 0.00 0.00 0.00 0.00 0.00 0.00 0.00 0.00 0.00 0.00 0.00 0.00 0.00 0.03 0.04 0.00 0.01 0.03 0.02 0.02 0.01 0.00 0.00 0.00 0.00 0.00 0.00 0.00 0.00 0.00 0.05 0.05 0.02 0.00 0.01 0.02 0.00 0.00
0.00 0.00 0.00 0.00 0.00 0.00 0.00 0.00 0.00 0.00 0.00 0.00 0.00 0.00 0.00 0.00 0.00 0.00 0.02 0.05 0.01 0.00 0.01 0.03 0.01 0.00 0.00 0.00 0.00 0.00 0.00 0.00 0.00 0.00 0.00 0.04 0.19 0.02 0.03 0.01 0.02 0.00 0.00
0.00 0.00 0.00 0.00 0.00 0.00 0.00 0.00 0.00 0.00 0.00 0.00 0.00 0.00 0.00 0.00 0.00 0.00 0.01 0.01 0.00 0.00 0.00 0.00 0.00 0.00 0.00 0.00 0.00 0.00 0.00 0.00 0.00 0.00 0.00 0.00 0.10 0.09 0.05 0.00 0.03 0.01 0.01
0.00 0.00 0.00 0.00 0.00 0.00 0.00 0.00 0.00 0.00 0.00 0.00 0.00 0.00 0.00 0.00 0.00 0.00 0.00 0.00 0.00 0.00 0.00 0.00 0.00 0.00 0.00 0.00 0.00 0.00 0.00 0.00 0.01 0.04 0.04 0.03 0.06 0.03 0.01 0.00 0.01 0.01 0.01
0.00 0.00 0.00 0.00 0.00 0.00 0.00 0.00 0.00 0.00 0.00 0.00 0.00 0.00 0.00 0.00 0.00 0.00 0.00 0.00 0.00 0.00 0.00 0.00 0.00 0.01 0.00 0.00 0.00 0.00 0.00 0.00 0.01 0.02 0.14 0.18 0.07 0.03 0.04 0.02 0.00 0.00 0.00
0.00 0.00 0.00 0.00 0.00 0.00 0.00 0.00 0.00 0.00 0.00 0.00 0.00 0.00 0.00 0.00 0.00 0.00 0.00 0.00 0.00 0.00 0.00 0.00 0.00 0.00 0.00 0.00 0.00 0.00 0.00 0.00 0.00 0.04 0.09 0.17 0.14 0.08 0.07 0.02 0.00 0.00 0.00
0.00 0.00 0.00 0.00 0.00 0.00 0.00 0.00 0.00 0.00 0.00 0.00 0.00 0.00 0.00 0.00 0.00 0.00 0.00 0.00 0.00 0.01 0.00 0.00 0.00 0.00 0.00 0.02 0.00 0.00 0.00 0.00 0.00 0.02 0.09 0.11 0.12 0.13 0.12 0.02 0.00 0.00 0.00
0.00 0.00 0.00 0.00 0.00 0.00 0.00 0.00 0.00 0.00 0.00 0.00 0.00 0.00 0.00 0.00 0.00 0.00 0.00 0.00 0.01 0.02 0.02 0.01 0.00 0.00 0.00 0.00 0.03 0.02 0.03 0.03 0.00 0.03 0.04 0.12 0.14 0.12 0.20 0.02 0.00 0.00 0.00
0.00 0.00 0.00 0.00 0.00 0.00 0.00 0.00 0.00 0.00 0.00 0.00 0.00 0.00 0.00 0.00 0.00 0.00 0.00 0.00 0.01 0.01 0.03 0.04 0.00 0.00 0.00 0.00 0.02 0.02 0.01 0.02 0.00 0.00 0.01 0.05 0.18 0.05 0.08 0.01 0.00 0.00 0.00
0.00 0.00 0.00 0.00 0.00 0.00 0.00 0.00 0.00 0.00 0.00 0.00 0.00 0.00 0.00 0.00 0.00 0.00 0.00 0.00 0.00 0.01 0.03 0.11 0.07 0.03 0.00 0.11 0.14 0.11 0.09 0.08 0.03 0.00 0.05 0.07 0.26 0.18 0.00 0.00 0.00 0.01 0.01
0.00 0.00 0.00 0.00 0.00 0.00 0.00 0.00 0.00 0.00 0.00 0.00 0.00 0.00 0.00 0.00 0.00 0.00 0.00 0.00 0.00 0.00 0.05 0.12 0.07 0.03 0.01 0.05 0.10 0.09 0.13 0.16 0.16 0.06 0.02 0.08 0.18 0.15 0.01 0.00 0.01 0.01 0.01
0.00 0.00 0.00 0.00 0.00 0.00 0.00 0.01 0.00 0.00 0.00 0.00 0.00 0.00 0.00 0.00 0.00 0.00 0.00 0.00 0.00 0.00 0.05 0.09 0.07 0.07 0.07 0.03 0.05 0.10 0.12 0.20 0.19 0.13 0.06 0.03 0.06 0.06 0.01 0.01 0.01 0.02 0.01
0.00 0.00 0.00 0.00 0.00 0.00 0.00 0.02 0.02 0.00 0.00 0.00 0.00 0.00 0.00 0.00 0.00 0.00 0.00 0.00 0.00 0.00 0.05 0.17 0.19 0.11 0.07 0.02 0.04 0.16 0.21 0.18 0.21 0.20 0.14 0.04 0.00 0.02 0.00 0.00 0.01 0.02 0.01
0.00 0.00 0.00 0.00 0.00 0.00 0.00 0.02 0.02 0.01 0.00 0.00 0.00 0.00 0.00 0.00 0.00 0.00 0.00 0.00 0.00 0.00 0.01 0.15 0.20 0.11 0.08 0.03 0.01 0.04 0.11 0.14 0.12 0.14 0.15 0.10 0.01 0.00 0.00 0.00 0.01 0.01 0.01
0.00 0.00 0.00 0.00 0.00 0.00 0.02 0.02 0.02 0.01 0.00 0.00 0.00 0.00 0.00 0.00 0.00 0.00 0.00 0.00 0.00 0.00 0.00 0.06 0.17 0.16 0.11 0.04 0.03 0.01 0.02 0.05 0.08 0.10 0.10 0.07 0.01 0.00 0.00 0.00 0.00 0.00 0.00
0.00 0.00 0.00 0.00 0.00 0.00 0.02 0.03 0.01 0.01 0.02 0.01 0.00 0.00 0.00 0.00 0.00 0.00 0.00 0.00 0.00 0.00 0.00 0.00 0.05 0.11 0.08 0.05 0.06 0.11 0.08 0.04 0.06 0.08 0.06 0.05 0.01 0.00 0.00 0.00 0.00 0.00 0.00
0.00 0.00 0.00 0.00 0.00 0.00 0.00 0.00 0.00 0.00 0.01 0.04 0.01 0.00 0.00 0.00 0.00 0.00 0.00 0.00 0.00 0.00 0.00 0.00 0.00 0.00 0.01 0.02 0.05 0.11 0.16 0.09 0.10 0.08 0.06 0.02 0.00 0.00 0.00 0.00 0.00 0.00 0.00
0.00 0.00 0.00 0.00 0.00 0.00 0.00 0.00 0.00 0.03 0.08 0.09 0.13 0.07 0.00 0.00 0.00 0.00 0.00 0.00 0.00 0.00 0.01 0.00 0.00 0.00 0.00 0.01 0.01 0.02 0.13 0.26 0.30 0.23 0.13 0.02 0.00 0.00 0.00 0.00 0.00 0.00 0.00
0.00 0.00 0.00 0.00 0.00 0.00 0.00 0.00 0.01 0.04 0.08 0.05 0.02 0.00 0.00 0.00 0.00 0.00 0.00 0.00 0.00 0.00 0.00 0.00 0.00 0.00 0.01 0.01 0.00 0.01 0.01 0.13 0.20 0.25 0.19 0.06 0.00 0.00 0.00 0.00 0.00 0.00 0.00
0.00 0.00 0.00 0.00 0.00 0.00 0.00 0.00 0.00 0.00 0.00 0.00 0.00 0.00 0.01 0.00 0.00 0.00 0.00 0.00 0.00 0.00 0.00 0.01 0.01 0.03 0.03 0.02 0.01 0.00 0.00 0.01 0.06 0.17 0.14 0.09 0.01 0.00 0.00 0.00 0.00 0.00 0.00
0.00 0.00 0.00 0.00 0.00 0.00 0.00 0.00 0.00 0.00 0.00 0.00 0.01 0.03 0.01 0.00 0.00 0.00 0.01 0.01 0.00 0.01 0.01 0.01 0.03 0.06 0.07 0.06 0.03 0.02 0.00 0.00 0.05 0.09 0.16 0.11 0.05 0.00 0.00 0.00 0.00 0.00 0.00
0.00 0.00 0.00 0.00 0.00 0.00 0.00 0.00 0.00 0.00 0.00 0.00 0.01 0.02 0.02 0.00 0.00 0.00 0.00 0.00 0.01 0.01 0.01 0.01 0.03 0.03 0.05 0.06 0.06 0.03 0.01 0.00 0.00 0.03 0.08 0.12 0.12 0.05 0.00 0.00 0.00 0.00 0.00
MSLP
1006.04 1006.06 1006.62 1007.17 1007.52 1007.50 1007.52 1007.54 1007.57 1008.03 1008.44 1008.79 1008.86 1009.22 1009.38 1009.63 1009.87 1010.37 1010.83 1011.22 1011.51 1011.68 1011.87 1012.19 1012.61 1012.87 1013.01 1013.16 1013.27 1013.40 1013.68 1013.74 1014.03 1014.40 1014.75 1015.12 1015.37 1015.51 1015.88 1016.04 1016.12 1016.30 1016.44
1005.09 1005.71 1006.46 1007.12 1007.48 1007.62 1007.68 1007.70 1007.59 1008.05 1008.56 1009.05 1009.25 1009.55 1009.66 1009.98 1010.15 1010.64 1011.12 1011.43 1011.62 1011.79 1012.08 1012.44 1012.70 1012.95 1013.20 1013.46 1013.52 1013.60 1013.83 1014.00 1014.20 1014.47 1014.99 1015.24 1015.57 1015.77 1016.01 1016.24 1016.39 1016.65 1016.81
1005.00 1005.70 1006.35 1006.74 1007.21 1007.65 1007.84 1007.83 1007.54 1007.94 1008.58 1009.10 1009.47 1009.90 1010.01 1010.20 1010.38 1010.78 1011.22 1011.51 1011.74 1011.97 1012.30 1012.62 1012.82 1013.14 1013.42 1013.69 1013.85 1014.12 1014.14 1014.12 1014.41 1014.73 1015.03 1015.57 1015.84 1015.94 1016.32 1016.60 1016.68 1016.86 1017.08
1004.70 1005.43 1006.12 1006.37 1006.74 1007.27 1007.79 1008.17 1007.86 1007.87 1008.42 1008.97 1009.55 1010.00 1010.30 1010.61 1010.67 1010.97 1011.34 1011.62 1011.94 1012.07 1012.41 1012.67 1012.95 1013.27 1013.53 1013.81 1013.97 1014.26 1014.55 1014.71 1014.67 1014.97 1015.19 1015.74 1016.08 1016.28 1016.52 1016.85 1017.00 1017.15 1017.36
1005.53 1005.59 1005.61 1006.00 1006.51 1006.94 1007.57 1008.11 1008.15 1008.18 1008.35 1008.82 1009.36 1009.90 1010.31 1010.74 1010.92 1011.17 1011.56 1011.92 1012.09 1012.27 1012.43 1012.76 1012.94 1013.32 1013.72 1014.00 1014.16 1014.41 1014.74 1015.02 1015.03 1015.22 1015.47 1015.80 1016.27 1016.51 1016.65 1016.90 1017.20 1017.46 1017.75
1005.41 1005.73 1006.09 1006.18 1006.45 1006.85 1007.46 1008.12 1008.40 1008.47 1008.54 1008.86 1009.31 1009.78 1010.29 1010.73 1010.96 1011.25 1011.65 1011.94 1012.07 1012.31 1012.45 1012.71 1013.04 1013.35 1013.79 1014.08 1014.38 1014.60 1014.98 1015.26 1015.55 1015.62 1015.82 1015.91 1016.30 1016.47 1016.81 1017.20 1017.57 1017.78 1018.05
1005.31 1005.57 1005.98 1006.33 1006.59 1006.83 1007.37 1007.96 1008.44 1008.72 1008.90 1008.99 1009.38 1009.79 1010.22 1010.63 1010.94 1011.33 1011.64 1011.93 1012.14 1012.33 1012.53 1012.82 1013.14 1013.49 1013.87 1014.23 1014.50 1014.70 1015.13 1015.52 1015.86 1016.04 1016.15 1016.15 1016.27 1016.65 1017.02 1017.42 1017.68 1018.01 1018.34
1004.90 1005.59 1005.95 1006.43 1006.76 1007.06 1007.46 1007.79 1008.35 1008.72 1009.04 1009.13 1009.36 1009.74 1010.10 1010.48 1010.86 1011.27 1011.67 1011.99 1012.26 1012.40 1012.55 1012.85 1013.21 1013.56 1013.83 1014.14 1014.48 1014.74 1015.17 1015.60 1015.96 1016.20 1016.35 1016.33 1016.28 1016.65 1017.06 1017.58 1017.91 1018.35 1018.62
1005.33 1005.49 1005.77 1006.12 1006.48 1006.95 1007.55 1007.98 1008.26 1008.73 1009.14 1009.34 1009.41 1009.72 1010.02 1010.43 1010.86 1011.20 1011.61 1011.98 1012.24 1012.49 1012.68 1012.86 1013.13 1013.44 1013.84 1014.01 1014.44 1014.68 1015.08 1015.23 1016.05 1016.35 1016.43 1016.51 1016.43 1016.72 1017.10 1017.66 1018.22 1018.57 1018.79
1005.84 1005.93 1006.13 1006.25 1006.46 1006.90 1007.42 1007.92 1008.20 1008.67 1009.18 1009.42 1009.46 1009.63 1009.94 1010.39 1010.79 1011.11 1011.48 1011.91 1012.22 1012.48 1012.72 1013.00 1013.30 1013.43 1013.83 1014.15 1014.27 1014.90 1015.17 1015.26 1015.85 1016.31 1016.47 1016.46 1016.60 1016.80 1017.23 1017.76 1018.28 1018.78 1019.17
1006.26 1006.34 1006.44 1006.62 1006.92 1006.85 1007.26 1007.85 1008.22 1008.65 1009.12 1009.35 1009.51 1009.63 1009.94 1010.40 1010.73 1011.03 1011.38 1011.75 1011.99 1012.27 1012.61 1012.93 1013.25 1013.52 1013.96 1014.37 1014.49 1015.12 1015.29 1015.24 1015.85 1016.32 1016.52 1016.47 1016.62 1016.91 1017.37 1017.82 1018.32 1018.98 1019.38
1006.33 1006.46 1006.62 1006.69 1006.95 1007.21 1007.33 1007.64 1008.15 1008.64 1009.02 1009.24 1009.33 1009.50 1009.87 1010.27 1010.63 1010.91 1011.27 1011.66 1011.89 1012.21 1012.55 1012.83 1013.23 1013.66 1014.09 1014.34 1014.82 1015.18 1015.67 1015.39 1015.43 1016.18 1016.39 1016.47 1016.62 1017.09 1017.58 1017.96 1018.65 1019.15 1019.53
1005.52 1006.19 1006.35 1006.44 1006.63 1006.99 1007.41 1007.59 1007.99 1008.48 1008.90 1009.14 1009.34 1009.48 1009.88 1010.26 1010.68 1010.95 1011.35 1011.79 1012.01 1012.30 1012.68 1012.91 1013.39 1013.91 1014.20 1014.48 1014.82 1015.08 1015.27 1015.68 1015.78 1016.02 1016.21 1016.47 1016.68 1017.17 1017.77 1017.99 1018.70 1019.29 1019.64
1005.64 1005.52 1005.82 1006.18 1006.41 1006.58 1006.95 1007.25 1007.67 1008.11 1008.54 1008.99 1009.31 1009.58 1009.85 1010.39 1010.78 1010.91 1011.26 1011.68 1012.03 1012.35 1012.74 1013.12 1013.56 1013.93 1014.21 1014.55 1014.93 1015.42 1015.29 1015.32 1015.97 1015.97 1016.26 1016.51 1016.71 1017.07 1017.69 1018.14 1018.73 1019.24 1019.76
1005.97 1005.63 1005.47 1005.78 1006.02 1006.17 1006.45 1006.93 1007.36 1007.71 1008.15 1008.54 1008.80 1009.34 1009.54 1010.12 1010.53 1010.80 1011.22 1011.47 1011.73 1012.20 1012.60 1013.13 1013.77 1013.99 1014.17 1014.46 1014.83 1015.38 1015.55 1015.40 1015.75 1016.03 1016.20 1016.57 1016.85 1016.99 1017.62 1018.08 1018.59 1019.05 1019.63
1004.89 1005.19 1005.22 1005.35 1005.49 1005.81 1006.05 1006.40 1006.85 1007.38 1007.61 1008.02 1008.30 1008.83 1009.34 1009.63 1010.17 1010.52 1011.05 1011.34 1011.63 1012.07 1012.45 1012.92 1013.52 1013.92 1014.14 1014.45 1014.96 1015.06 1015.35 1015.73 1016.18 1016.39 1016.29 1016.51 1016.86 1017.26 1017.70 1017.99 1018.41 1018.89 1019.47
1004.08 1003.86 1004.34 1004.66 1005.03 1005.20 1005.58 1005.88 1006.27 1007.01 1007.19 1007.57 1007.75 1008.39 1008.91 1009.29 1009.74 1010.20 1010.80 1011.11 1011.44 1011.90 1012.41 1012.92 1013.50 1013.68 1014.34 1014.63 1014.99 1015.30 1015.66 1016.00 1016.51 1016.64 1016.45 1016.49 1016.96 1017.23 1017.69 1018.06 1018.47 1018.83 1019.35
1002.99 1003.09 1003.23 1003.63 1004.24 1004.57 1004.93 1005.31 1005.76 1006.47 1006.97 1006.99 1007.17 1007.77 1008.41 1008.93 1009.49 1010.01 1010.52 1010.78 1011.25 1011.69 1012.28 1012.82 1013.41 1013.64 1013.91 1014.67 1015.05 1015.38 1015.69 1015.72 1016.24 1016.55 1016.84 1016.61 1016.84 1017.32 1017.78 1018.15 1018.49 1018.92 1019.40
1001.94 1002.09 1002.21 1002.45 1002.94 1003.52 1004.08 1004.77 1005.19 1005.69 1006.25 1006.68 1006.84 1007.28 1007.87 1008.42 1009.10 1009.68 1010.14 1010.55 1010.90 1011.53 1012.14 1012.55 1013.26 1013.49 1013.79 1014.34 1014.83 1015.13 1015.58 1015.85 1016.06 1016.34 1016.76 1016.81 1016.80 1017.34 1017.81 1018.20 1018.57 1018.93 1019.45
1001.23 1001.23 1001.44 1001.62 1001.92 1002.47 1003.24 1004.08 1004.77 1005.39 1006.06 1006.23 1006.66 1007.11 1007.37 1008.01 1008.63 1009.29 1009.89 1010.36 1010.65 1011.22 1011.88 1012.24 1012.78 1013.37 1013.74 1013.98 1014.54 1015.09 1015.46 1015.73 1015.93 1016.18 1016.40 1016.71 1016.80 1017.32 1017.78 1018.14 1018.68 1018.98 1019.38
1000.43 1000.74 1000.80 1001.08 1001.32 1002.30 1002.77 1003.34 1004.18 1004.58 1005.29 1005.69 1006.15 1006.53 1006.90 1007.44 1008.13 1008.90 1009.54 1010.03 1010.43 1010.81 1011.40 1011.77 1012.38 1012.86 1013.53 1013.90 1014.39 1014.91 1015.29 1015.51 1015.74 1015.87 1015.90 1016.42 1016.76 1017.23 1017.67 1018.05 1018.69 1018.92 1019.31
999.72 999.84 1000.16 1000.02 1000.61 1001.23 1001.70 1002.04 1002.74 1003.39 1004.30 1004.83 1005.62 1006.30 1006.66 1007.21 1007.61 1008.37 1009.10 1009.60 1010.03 1010.50 1011.19 1011.51 1011.83 1012.46 1013.01 1013.38 1013.97 1014.55 1015.21 1015.83 1015.25 1015.36 1015.56 1016.11 1016.64 1017.03 1017.56 1017.90 1018.36 1018.79 1019.11
1000.76 1000.32 999.48 999.42 999.64 1000.17 1000.78 1001.69 1002.60 1003.58 1004.63 1004.98 1005.38 1005.85 1006.16 1006.70 1007.35 1007.89 1008.55 1009.16 1009.69 1010.14 1010.53 1011.14 1011.40 1011.84 1012.39 1013.02 1013.29 1013.88 1014.71 1015.04 1015.26 1015.46 1015.23 1015.74 1016.39 1016.99 1017.35 1017.76 1018.13 1018.50 1018.91
1001.55 1001.13 1000.06 998.84 999.07 999.58 1000.14 1000.82 1001.46 1001.95 1003.20 1003.52 1003.90 1004.88 1005.85 1006.29 1006.99 1007.39 1008.14 1008.86 1009.29 1009.71 1010.04 1010.58 1011.05 1011.39 1011.86 1012.35 1013.05 1013.15 1013.36 1013.91 1014.68 1015.34 1015.39 1015.50 1016.26 1016.82 1017.30 1017.68 1017.98 1018.30 1018.61
1001.88 1001.15 1000.32 998.40 998.21 998.44 999.27 999.96 1000.50 1001.33 1001.82 1002.33 1003.46 1004.76 1005.73 1006.19 1006.70 1007.10 1007.83 1008.43 1008.79 1009.37 1009.71 1010.04 1010.63 1011.08 1011.41 1011.81 1012.05 1012.40 1013.11 1013.60 1013.65 1014.12 1014.79 1015.61 1016.44 1016.58 1017.10 1017.48 1017.50 1017.93 1018.29
1001.89 1001.48 1000.36 998.58 997.92 998.18 998.68 999.34 1000.00 1000.41 1001.47 1002.28 1003.13 1004.11 1005.22 1005.84 1006.34 1006.77 1007.42 1007.97 1008.24 1008.74 1009.43 1009.55 1009.99 1010.64 1011.05 1011.40 1011.74 1011.92 1012.04 1012.45 1012.79 1013.31 1013.79 1014.98 1015.72 1016.12 1016.61 1017.07 1017.28 1017.39 1017.82
Thickness
5785 5789 5785 5779 5775 5774 5773 5772 5772 5768 5764 5761 5760 5757 5754 5753 5750 5745 5739 5734 5730 5728 5726 5722 5718 5715 5713 5711 5709 5708 5705 5705 5704 5702 5701 5699 5697 5697 5695 5695 5695 5693 5692
5792 5787 5782 5779 5774 5771 5769 5768 5769 5765 5761 5756 5754 5750 5749 5746 5744 5740 5734 5730 5727 5724 5721 5718 5715 5711 5708 5704 5703 5703 5701 5700 5699 5699 5696 5695 5693 5693 5693 5692 5691 5689 5687
5789 5783 5778 5776 5773 5768 5765 5764 5766 5763 5757 5752 5748 5744 5743 5741 5739 5735 5731 5726 5722 5720 5715 5713 5711 5707 5703 5699 5698 5694 5695 5696 5694 5692 5692 5690 5689 5690 5688 5687 5686 5685 5684
5788 5781 5776 5775 5772 5768 5763 5758 5760 5759 5755 5749 5744 5739 5736 5733 5732 5728 5724 5721 5718 5715 5711 5708 5706 5702 5697 5695 5694 5690 5687 5687 5690 5689 5690 5686 5684 5684 5684 5681 5681 5681 5680
5777 5776 5776 5773 5770 5766 5761 5755 5754 5753 5751 5746 5741 5736 5732 5728 5726 5722 5717 5714 5713 5709 5707 5703 5702 5698 5693 5689 5689 5685 5681 5680 5684 5684 5683 5682 5680 5679 5679 5678 5677 5676 5676
5775 5771 5769 5768 5766 5762 5757 5751 5747 5745 5745 5742 5738 5733 5728 5724 5721 5717 5713 5709 5708 5704 5702 5699 5697 5694 5689 5685 5683 5681 5677 5675 5675 5677 5677 5677 5676 5675 5674 5673 5672 5672 5671
5771 5768 5765 5762 5760 5757 5754 5748 5743 5739 5737 5736 5733 5729 5725 5721 5718 5713 5709 5705 5702 5699 5697 5694 5692 5689 5685 5681 5677 5677 5672 5668 5667 5668 5669 5672 5674 5672 5670 5668 5668 5668 5667
5768 5763 5759 5756 5754 5750 5747 5744 5739 5733 5730 5729 5728 5725 5722 5718 5714 5710 5705 5700 5696 5694 5692 5689 5687 5684 5681 5678 5674 5672 5669 5663 5661 5662 5664 5667 5669 5668 5667 5665 5664 5663 5663
5758 5758 5756 5753 5750 5746 5741 5737 5734 5729 5724 5722 5722 5720 5717 5714 5709 5706 5701 5696 5692 5689 5686 5684 5683 5680 5676 5675 5671 5669 5665 5662 5657 5656 5659 5661 5664 5664 5664 5662 5659 5659 5660
5747 5748 5746 5745 5743 5740 5736 5732 5730 5725 5719 5716 5716 5716 5713 5709 5705 5701 5696 5691 5688 5684 5680 5678 5676 5675 5671 5669 5667 5663 5660 5659 5656 5654 5655 5658 5659 5660 5659 5658 5655 5654 5654
5737 5737 5738 5738 5733 5733 5731 5726 5723 5719 5714 5711 5710 5709 5708 5704 5700 5697 5692 5688 5685 5680 5676 5673 5670 5669 5665 5662 5660 5657 5656 5657 5654 5651 5653 5655 5656 5656 5655 5654 5652 5649 5649
5728 5729 5729 5731 5729 5725 5723 5721 5716 5712 5709 5706 5705 5704 5703 5699 5696 5692 5688 5683 5680 5676 5672 5668 5664 5661 5658 5657 5654 5651 5648 5653 5653 5649 5651 5651 5651 5651 5650 5650 5647 5646 5646
5723 5723 5723 5724 5724 5721 5716 5714 5711 5708 5705 5702 5699 5698 5697 5694 5690 5686 5682 5676 5674 5670 5667 5663 5657 5653 5651 5650 5649 5647 5647 5645 5646 5647 5648 5647 5647 5647 5645 5645 5644 5642 5643
5710 5715 5720 5720 5719 5718 5713 5710 5707 5704 5702 5697 5693 5692 5690 5688 5685 5682 5677 5672 5668 5664 5661 5657 5652 5648 5645 5645 5642 5639 5642 5642 5639 5644 5643 5644 5644 5642 5641 5641 5640 5640 5639
5697 5704 5711 5714 5714 5712 5710 5706 5702 5700 5698 5694 5691 5687 5686 5684 5681 5677 5672 5668 5665 5660 5657 5650 5646 5642 5640 5640 5639 5635 5635 5637 5636 5637 5639 5639 5638 5639 5637 5638 5638 5638 5636
5696 5695 5699 5705 5710 5708 5705 5702 5698 5695 5694 5691 5689 5684 5682 5681 5677 5674 5668 5664 5661 5656 5652 5646 5642 5638 5635 5634 5633 5633 5631 5629 5628 5630 5634 5637 5636 5634 5634 5635 5636 5636 5634
5692 5698 5695 5701 5703 5705 5700 5697 5695 5690 5690 5687 5687 5682 5679 5677 5674 5671 5665 5661 5657 5653 5647 5641 5637 5634 5628 5627 5626 5626 5623 5621 5620 5624 5630 5632 5631 5632 5630 5632 5633 5633 5631
5689 5691 5694 5695 5698 5700 5697 5693 5690 5686 5683 5685 5684 5681 5677 5673 5669 5666 5662 5658 5653 5648 5643 5638 5632 5630 5626 5622 5621 5621 5619 5620 5619 5621 5622 5627 5628 5627 5627 5627 5628 5628 5627
5688 5690 5692 5693 5697 5697 5695 5689 5686 5683 5681 5681 5680 5678 5674 5671 5666 5663 5659 5654 5650 5645 5639 5636 5628 5626 5622 5620 5618 5618 5616 5615 5616 5616 5618 5621 5624 5623 5624 5624 5624 5624 5622
5681 5683 5687 5686 5689 5693 5691 5685 5681 5678 5675 5677 5676 5673 5672 5667 5663 5660 5655 5651 5647 5642 5636 5634 5630 5624 5617 5618 5616 5614 5613 5613 5613 5614 5615 5616 5619 5619 5619 5621 5619 5618 5618
5675 5673 5677 5679 5682 5679 5682 5680 5676 5675 5672 5673 5674 5671 5669 5664 5661 5658 5652 5649 5644 5639 5635 5633 5628 5624 5618 5616 5612 5611 5609 5608 5608 5610 5612 5613 5614 5614 5615 5616 5614 5614 5613
5670 5668 5668 5675 5675 5674 5678 5681 5679 5676 5670 5671 5668 5664 5663 5661 5659 5655 5650 5646 5642 5637 5631 5629 5627 5622 5618 5616 5612 5607 5604 5601 5606 5607 5610 5610 5610 5610 5610 5611 5610 5609 5609
5644 5650 5663 5669 5672 5671 5674 5672 5669 5662 5656 5659 5662 5661 5663 5660 5656 5654 5648 5643 5639 5635 5632 5627 5626 5623 5618 5614 5612 5607 5600 5603 5599 5599 5606 5608 5606 5606 5606 5606 5606 5605 5605
5624 5632 5645 5664 5667 5665 5666 5668 5668 5667 5662 5668 5669 5661 5657 5655 5652 5650 5645 5639 5637 5634 5631 5626 5623 5620 5616 5613 5606 5608 5607 5606 5599 5596 5599 5603 5602 5601 5600 5600 5600 5600 5600
5609 5621 5632 5658 5664 5667 5664 5667 5668 5663 5666 5667 5661 5653 5648 5647 5647 5644 5641 5636 5635 5631 5628 5625 5619 5615 5612 5609 5608 5604 5601 5599 5602 5601 5598 5596 5594 5597 5596 5595 5597 5596 5596
5600 5606 5623 5646 5657 5660 5663 5664 5663 5663 5659 5657 5654 5650 5645 5643 5642 5640 5637 5634 5634 5630 5625 5624 5618 5611 5607 5604 5601 5600 5602 5600 5602 5600 5599 5595 5595 5594 5592 5591 5592 5593 5592